x

West Santa Barbara 38 Nm West Of Santa Barbara, Ca (46054) Wave Buoy

6:50 - Sun 21st Sep 2014 All times are PDT. -7 hours from GMT.

  • Sig Wave height 6.2ft
  • Swell Direction
  • Peak Period 12s
  • Average Period 7s
  • Wind
    20mph, 25mph gusts
  • Sea Temp 65°f
  • Air Temp 64°f
  • Sea Pressure 1013.4mb
  • West Santa Barbara  38 Nm West Of Santa Barbara, Ca
  • West Santa Barbara  38 Nm West Of Santa Barbara, Ca

More Historic Weather Station data

Upgrade to MSW Pro to gain access to the past 30 days of data for over 8000 Wavebouys and Weather Stations around the globe.

Join Pro

Comparision Forecast

View Surf forecast
   
dim. 09/21 6:50 6ft 12s 7s 20 25 mph 1013.4mb 65f 64f
5:50 5.5ft 12s 7s 18 22 mph 1013.6mb 65f 64f
4:50 5.5ft 13s 7s 20 22 mph 1013.6mb 65f 64f
3:50 5.5ft 13s 8s 18 20 mph 1014mb 65f 64f
2:50 5.5ft 13s 8s 18 20 mph 1014.4mb 65f 64f
1:50 5.5ft 12s 8s 16 18 mph 1014.7mb 65f 64f
12:50 5ft 12s 8s 13 16 mph 1015.5mb 65f 64f
11:50 4.5ft 13s 8s 13 16 mph 1015.5mb 65f 64f
10:50 4.5ft 13s 9s 11 13 mph 1015.6mb 65f 64f
9:50 4ft 13s 8s 7 9 mph 1015.7mb 65f 64f
8:50 3.5ft 14s 7s 9 11 mph 1015.3mb 65f 64f
7:50 3.5ft 13s 6s 11 13 mph 1014.7mb 65f 64f
6:50 3.5ft 14s 6s 13 16 mph 1014.1mb 65f 64f
5:50 3.5ft 9s 6s 16 20 mph 1013.6mb 65f 64f
4:50 3.5ft 14s 6s 16 18 mph 1013.2mb 65f 64f
3:50 3.5ft 14s 6s 16 18 mph 1013mb 65f 64f
2:50 3.5ft 7s 6s 16 18 mph 1012.9mb 65f 64f
1:50 3.5ft 14s 6s 16 18 mph 1013.2mb 65f 64f
12:50 3.5ft 8s 6s 16 18 mph 1013.2mb 65f 64f
sam. 09/20 11:50 3.5ft 7s 5s 16 18 mph 1013.5mb 65f 64f
10:50 3.5ft 14s 6s 16 18 mph 1013.7mb 65f 65f
9:50 3.5ft 13s 6s 16 20 mph 1013.1mb 65f 65f
8:50 3.5ft 10s 6s 13 18 mph 1012.7mb 65f 64f
7:50 3.5ft 10s 6s 16 20 mph 1012.2mb 65f 64f
6:50 3.5ft 9s 7s 16 20 mph 1011.8mb 65f 64f
5:50 3.5ft 10s 7s 13 16 mph 1011.8mb 66f 64f
4:50 3.5ft 9s 7s 11
mph
1011.9mb 65f 64f
3:50 3.5ft 10s 7s 11
mph
1012.3mb 65f 64f
2:50 3.5ft 13s 7s 9 11 mph 1012.6mb 65f 64f
1:50 3.5ft 10s 8s 7 9 mph 1013.2mb 65f 64f
12:50 4ft 15s 8s 9
mph
1013.8mb 65f 64f
11:50 3.5ft 11s 7s 9 11 mph 1014mb 65f 63f
10:50 4ft 10s 7s 4 7 mph 1014.2mb 65f 64f
9:50 4ft 10s 7s 9
mph
1013.8mb 64f 63f
8:50 3.5ft 10s 7s 11
mph
1013.3mb 64f 63f
7:50 4ft 9s 7s 13 16 mph 1012.7mb 64f 62f
6:50 4.5ft 10s 7s 13 16 mph 1011.9mb 64f 62f
5:50 4.5ft 10s 7s 13 18 mph 1011.4mb 64f 62f
4:50 4.5ft 9s 7s 16 18 mph 1011.2mb 64f 62f
3:50 4.5ft 11s 6s 16 18 mph 1011.2mb 64f 62f
2:50 4.5ft 10s 6s 20 25 mph 1011.1mb 64f 62f
1:50 4.5ft 11s 6s 20 25 mph 1011.2mb 64f 62f
12:50 4.5ft 10s 7s 18 20 mph 1011.2mb 64f 63f
ven. 09/19 11:50 4.5ft 10s 8s 13 16 mph 1011.4mb 64f 63f
10:50 4.5ft 14s 7s 13
mph
1011.4mb 63f 63f
9:50 4.5ft 10s 7s 11 13 mph 1011.5mb 63f 62f
8:50 5ft 11s 8s 9 11 mph 1011.3mb 60f 62f
7:50 4.5ft 11s 8s 9 11 mph 1010.8mb 61f 62f
6:50 4.5ft 11s 8s 13
mph
1010.5mb 62f 63f
5:50 4.5ft 11s 8s 11
mph
1010.5mb 61f 63f
4:50 5ft 9s 8s 7
mph
1010.7mb 62f 64f
3:50 5.5ft 11s 8s 7
mph
1010.8mb 62f 64f
2:50 5ft 11s 8s 4 7 mph 1011.1mb 62f 64f
1:50 5ft 11s 8s 4 7 mph 1011.7mb 62f 64f
12:50 5ft 11s 8s 4 7 mph 1012.1mb 61f 63f
11:50 5ft 11s 8s 4 7 mph 1012.2mb 61f 62f
10:50 5ft 11s 8s 7 9 mph 1012.2mb 60f 62f
9:50 6ft 11s 8s 11 13 mph 1012.4mb 59f 62f
8:50 5.5ft 12s 8s 9 11 mph 1012.4mb 59f 61f
7:50 5.5ft 15s 8s 11 13 mph 1011.9mb 58f 61f
6:50 6ft 12s 9s 9 11 mph 1011.5mb 58f 61f
5:50 5.5ft 12s 8s 9 11 mph 1011.2mb 58f 62f
4:50 6ft 12s 8s 13 16 mph 1010.8mb 59f 62f
3:50 6ft 11s 8s 16 18 mph 1010.7mb 59f 62f
2:50 5ft 12s 8s 11
mph
1011.1mb 59f 62f
1:50 5.5ft 13s 8s 11 13 mph 1011mb 59f 62f
12:50 5.5ft 12s 8s 13 16 mph 1011mb 59f 63f
jeu. 09/18 11:50 6ft 12s 8s 13 16 mph 1010.9mb 60f 63f
10:50 6ft 13s 8s 11 16 mph 1010.9mb 60f 62f
9:50 6ft 12s 8s 13 16 mph 1010.7mb 60f 63f
8:50 6ft 13s 8s 16 18 mph 1010.5mb 60f 63f
7:50 6.5ft 12s 8s 16 18 mph 1010mb 60f 63f
6:50 6ft 14s 8s 16 20 mph 1009.8mb 60f 64f
5:50 6.5ft 14s 8s 16 20 mph 1009.7mb 61f 64f
4:50 7ft 14s 9s 16 20 mph 1009.6mb 60f 64f
3:50 6.5ft 16s 9s 13 16 mph 1009.7mb 61f 64f
2:50 6ft 15s 9s 13 16 mph 1010.2mb 61f 64f
1:50 6ft 10s 9s 11 13 mph 1010.7mb 61f 64f
12:50 6.5ft 9s 9s 9 11 mph 1011mb 61f 64f
11:50 7ft 14s 10s 11
mph
1011.6mb 61f 63f
10:50 7ft 14s 10s 9
mph
1011.7mb 60f 63f
9:50 6.5ft 10s 9s 9
mph
1011.6mb 60f 62f
8:50 6.5ft 9s 10s 9
mph
1011.2mb 60f 62f
7:50 5ft 14s 10s 11
mph
1010.7mb 59f 63f
6:50 5.5ft 16s 11s 7 9 mph 1010mb 59f 62f
5:50 5ft 16s 10s 9 11 mph 1009.5mb 59f 62f
4:50 4.5ft 16s 9s 11 13 mph 1009.3mb 59f 62f
3:50 4.5ft 14s 9s 11 13 mph 1009.3mb 59f 62f